When you browse on this site, cookies collect data to enhance your experience and personalize the content and advertising you see.
Visit our Privacy Policy to learn more. By continuing to use the site, you agree to this use of cookies and data.

Hourly Weather Thimphu

Today, 11 August, Tuesday

Time Temperature Precipitation Wind Pressure Humidity
00:00 +13°C° 0 mm 1 mps 524 mmHg 97%
01:00 +13°C° 0.1 mm 1 mps 524 mmHg 97%
02:00 +12°C° 0.1 mm 0 mps 523 mmHg 97%
03:00 +12°C° 0.1 mm 0 mps 523 mmHg 97%
04:00 +12°C° 0 mm 0 mps 523 mmHg 96%
05:00 +12°C° 0 mm 0 mps 523 mmHg 96%
06:00 +12°C° 0 mm 0 mps 523 mmHg 96%
07:00 +14°C° 0 mm 1 mps 524 mmHg 92%
08:00 +15°C° 0 mm 1 mps 525 mmHg 88%
09:00 +16°C° 0 mm 1 mps 526 mmHg 84%
10:00 +19°C° 0.3 mm 1 mps 526 mmHg 80%
11:00 +20°C° 0.3 mm 1 mps 527 mmHg 76%
12:00 +19°C° 0 mm 2 mps 527 mmHg 72%
13:00 +19°C° 0.4 mm 2 mps 526 mmHg 75%
14:00 +19°C° 0.4 mm 2 mps 526 mmHg 78%
15:00 +18°C° 0.4 mm 2 mps 525 mmHg 81%
16:00 +17°C° 0.5 mm 2 mps 524 mmHg 86%
17:00 +16°C° 0.5 mm 2 mps 524 mmHg 90%
18:00 +15°C° 0.5 mm 2 mps 523 mmHg 95%
19:00 +15°C° 0.4 mm 1 mps 524 mmHg 96%
20:00 +14°C° 0.4 mm 1 mps 524 mmHg 97%
21:00 +12°C° 0.4 mm 0 mps 524 mmHg 98%
22:00 +12°C° 0.1 mm 0 mps 524 mmHg 98%
23:00 +12°C° 0.1 mm 0 mps 524 mmHg 97%

Tomorrow, 12 August, Wednesday

Time Temperature Precipitation Wind Pressure Humidity
00:00 +11°C° 0.1 mm 0 mps 524 mmHg 97%
01:00 +11°C° 0 mm 0 mps 523 mmHg 97%
02:00 +11°C° 0 mm 0 mps 523 mmHg 96%
03:00 +11°C° 0 mm 0 mps 523 mmHg 96%
04:00 +11°C° 0 mm 0 mps 523 mmHg 95%
05:00 +11°C° 0 mm 0 mps 523 mmHg 95%
06:00 +11°C° 0 mm 0 mps 523 mmHg 94%
07:00 +14°C° 0 mm 1 mps 525 mmHg 88%
08:00 +16°C° 0 mm 1 mps 526 mmHg 81%
09:00 +19°C° 0 mm 1 mps 528 mmHg 74%
10:00 +19°C° 0.3 mm 2 mps 528 mmHg 75%
11:00 +19°C° 0.3 mm 2 mps 528 mmHg 76%
12:00 +19°C° 0.3 mm 2 mps 528 mmHg 77%
13:00 +19°C° 0.7 mm 2 mps 527 mmHg 80%
14:00 +18°C° 0.7 mm 2 mps 526 mmHg 83%
15:00 +18°C° 0.7 mm 2 mps 525 mmHg 87%
16:00 +17°C° 0.5 mm 2 mps 525 mmHg 89%
17:00 +16°C° 0.5 mm 1 mps 524 mmHg 92%
18:00 +16°C° 0.5 mm 1 mps 524 mmHg 95%
19:00 +15°C° 0.2 mm 1 mps 524 mmHg 96%
20:00 +15°C° 0.2 mm 1 mps 525 mmHg 97%
21:00 +13°C° 0.2 mm 0 mps 525 mmHg 98%
22:00 +13°C° 0.4 mm 0 mps 525 mmHg 99%
23:00 +13°C° 0.4 mm 0 mps 525 mmHg 99%

Day after tomorrow, 13 August, Thursday

Time Temperature Precipitation Wind Pressure Humidity
00:00 +13°C° 0.4 mm 0 mps 525 mmHg 99%
01:00 +13°C° 0.4 mm 0 mps 524 mmHg 99%
02:00 +13°C° 0.4 mm 0 mps 524 mmHg 99%
03:00 +12°C° 0.4 mm 0 mps 524 mmHg 99%
04:00 +12°C° 0.3 mm 0 mps 524 mmHg 98%
05:00 +12°C° 0.3 mm 0 mps 524 mmHg 98%
06:00 +12°C° 0.3 mm 0 mps 524 mmHg 98%
07:00 +14°C° 0.1 mm 0 mps 525 mmHg 93%
08:00 +16°C° 0.1 mm 1 mps 526 mmHg 89%
09:00 +18°C° 0.1 mm 1 mps 527 mmHg 85%
10:00 +18°C° 0.8 mm 1 mps 526 mmHg 87%
11:00 +17°C° 0.8 mm 2 mps 526 mmHg 88%
12:00 +17°C° 0.8 mm 2 mps 526 mmHg 90%
13:00 +17°C° 0.8 mm 2 mps 525 mmHg 90%
14:00 +18°C° 0.8 mm 1 mps 525 mmHg 90%
15:00 +18°C° 0.8 mm 1 mps 524 mmHg 91%
16:00 +18°C° 0.5 mm 1 mps 524 mmHg 92%
17:00 +16°C° 0.5 mm 1 mps 523 mmHg 94%
18:00 +15°C° 0.5 mm 1 mps 523 mmHg 96%
19:00 +15°C° 0.3 mm 1 mps 523 mmHg 97%
20:00 +14°C° 0.3 mm 1 mps 523 mmHg 97%
21:00 +14°C° 0.3 mm 1 mps 524 mmHg 98%
22:00 +13°C° 0.4 mm 0 mps 524 mmHg 98%
23:00 +12°C° 0.4 mm 0 mps 524 mmHg 97%

14 August, Friday

Time Temperature Precipitation Wind Pressure Humidity
00:00 +12°C° 0.4 mm 0 mps 524 mmHg 96%
01:00 +12°C° 0.3 mm 0 mps 523 mmHg 97%
02:00 +12°C° 0.3 mm 0 mps 523 mmHg 97%
03:00 +12°C° 0.3 mm 0 mps 522 mmHg 97%
04:00 +12°C° 0.8 mm 0 mps 523 mmHg 97%
05:00 +12°C° 0.8 mm 0 mps 523 mmHg 97%
06:00 +12°C° 0.8 mm 0 mps 523 mmHg 97%
07:00 +12°C° 1.2 mm 0 mps 523 mmHg 97%
08:00 +13°C° 1.2 mm 0 mps 524 mmHg 97%
09:00 +13°C° 1.2 mm 0 mps 524 mmHg 97%
10:00 +13°C° 1 mm 0 mps 524 mmHg 97%
11:00 +13°C° 1 mm 0 mps 524 mmHg 97%
12:00 +13°C° 1 mm 0 mps 524 mmHg 96%
13:00 +15°C° 0.3 mm 1 mps 523 mmHg 94%
14:00 +15°C° 0.3 mm 1 mps 523 mmHg 92%
15:00 +16°C° 0.3 mm 1 mps 523 mmHg 89%
16:00 +16°C° 0.3 mm 1 mps 523 mmHg 92%
17:00 +15°C° 0.3 mm 1 mps 522 mmHg 94%
18:00 +15°C° 0.3 mm 1 mps 522 mmHg 96%
19:00 +14°C° 0.3 mm 1 mps 522 mmHg 97%
20:00 +14°C° 0.3 mm 1 mps 523 mmHg 98%
21:00 +13°C° 0.3 mm 0 mps 523 mmHg 99%
22:00 +13°C° 0.4 mm 0 mps 523 mmHg 99%
23:00 +12°C° 0.4 mm 0 mps 523 mmHg 99%

15 August, Saturday

Time Temperature Precipitation Wind Pressure Humidity
00:00 +12°C° 0.4 mm 0 mps 523 mmHg 99%
01:00 +12°C° 0.1 mm 0 mps 522 mmHg 98%
02:00 +12°C° 0.1 mm 0 mps 522 mmHg 98%
03:00 +12°C° 0.1 mm 0 mps 522 mmHg 98%
04:00 +12°C° 0.1 mm 0 mps 522 mmHg 98%
05:00 +12°C° 0.1 mm 0 mps 522 mmHg 97%
06:00 +12°C° 0.1 mm 0 mps 522 mmHg 97%
07:00 +12°C° 0.2 mm 0 mps 523 mmHg 96%
08:00 +13°C° 0.2 mm 0 mps 523 mmHg 96%
09:00 +13°C° 0.2 mm 0 mps 524 mmHg 95%
10:00 +15°C° 0.4 mm 1 mps 524 mmHg 93%
11:00 +15°C° 0.4 mm 1 mps 524 mmHg 92%
12:00 +16°C° 0.4 mm 1 mps 524 mmHg 90%
13:00 +16°C° 1.1 mm 1 mps 524 mmHg 92%
14:00 +15°C° 1.1 mm 1 mps 523 mmHg 94%
15:00 +15°C° 1.1 mm 1 mps 523 mmHg 96%
16:00 +15°C° 0.2 mm 1 mps 523 mmHg 96%
17:00 +14°C° 0.2 mm 0 mps 523 mmHg 96%
18:00 +14°C° 0.2 mm 0 mps 523 mmHg 96%
19:00 +13°C° 0.1 mm 0 mps 523 mmHg 97%
20:00 +13°C° 0.1 mm 0 mps 523 mmHg 97%
21:00 +13°C° 0.1 mm 0 mps 523 mmHg 98%
22:00 +12°C° 0.3 mm 0 mps 523 mmHg 98%
23:00 +12°C° 0.3 mm 0 mps 523 mmHg 98%

16 August, Sunday

Time Temperature Precipitation Wind Pressure Humidity
00:00 +12°C° 0.3 mm 0 mps 523 mmHg 98%
01:00 +12°C° 0.4 mm 0 mps 523 mmHg 97%
02:00 +12°C° 0.4 mm 0 mps 523 mmHg 97%
03:00 +12°C° 0.4 mm 0 mps 522 mmHg 97%
04:00 +12°C° 0.3 mm 0 mps 523 mmHg 97%
05:00 +12°C° 0.3 mm 0 mps 523 mmHg 96%
06:00 +12°C° 0.3 mm 0 mps 523 mmHg 96%
07:00 +13°C° 0.2 mm 0 mps 524 mmHg 95%
08:00 +14°C° 0.2 mm 0 mps 524 mmHg 94%
09:00 +15°C° 0.2 mm 1 mps 525 mmHg 92%
10:00 +18°C° 0.5 mm 1 mps 525 mmHg 89%
11:00 +19°C° 0.5 mm 1 mps 525 mmHg 85%
12:00 +19°C° 0.5 mm 2 mps 526 mmHg 81%
13:00 +19°C° 1.1 mm 2 mps 525 mmHg 85%
14:00 +18°C° 1.1 mm 2 mps 524 mmHg 89%
15:00 +17°C° 1.1 mm 2 mps 524 mmHg 92%
16:00 +18°C° 0.7 mm 1 mps 523 mmHg 94%
17:00 +16°C° 0.7 mm 1 mps 523 mmHg 96%
18:00 +15°C° 0.7 mm 1 mps 523 mmHg 98%
19:00 +15°C° 0.3 mm 1 mps 523 mmHg 98%
20:00 +15°C° 0.3 mm 1 mps 523 mmHg 98%
21:00 +14°C° 0.3 mm 1 mps 524 mmHg 99%
22:00 +14°C° 0.7 mm 1 mps 523 mmHg 99%
23:00 +13°C° 0.7 mm 0 mps 523 mmHg 99%
Show more